User: anonymous   Login
Location: Buffign�court
(47.8126°N, 6.0176°E)
Time: 21:39:06
(UTC+00:00)
Language:

Cosmos 2360 Rocket - Orbit

View from above orbital plane
View from above orbital plane
View from above satellite
View from above satellite

Ground track
Ground track

The orbit data is extracted from the following two-line orbital elements,

1 25407U 98045B   21266.03304719  .00000246  00000-0  14931-3 0  9991
2 25407  71.0140   5.4101 0008267 333.2490  26.8206 14.15841309196827
Epoch (UTC): 23 September 2021 00:47:35
Eccentricity: 0.0008267
inclination: 71.0140°
perigee height: 833 km
apogee height: 845 km
right ascension of ascending node: 5.4101°
argument of perigee: 333.2490°
revolutions per day: 14.15841309
mean anomaly at epoch: 26.8206°
orbit number at epoch: 19682

The dashed part of the orbit path shows where the satellite is in the earth's shadow,  

DLR